Lapse_Rate
7.6 7.8 8.0 7.9 7.8 7.6 7.7 7.5 7.5 7.5 7.3 7.2 7.1 7.3 7.7 7.4 7.4 7.5 7.6 7.6 7.6 7.6 7.5 7.3 7.3 7.5 7.5 7.1 7.0 7.1 7.1 7.1
7.6 7.7 7.9 8.0 7.5 7.6 7.6 7.5 7.4 7.3 7.2 7.1 7.0 7.1 7.4 7.4 7.2 7.4 7.6 7.6 7.7 7.6 7.5 7.4 7.3 7.5 7.6 7.3 7.0 7.1 7.0 7.0
7.4 7.8 7.8 8.0 7.7 7.6 7.6 7.5 7.3 7.2 7.0 7.1 7.2 7.2 7.3 7.4 7.2 7.2 7.4 7.6 7.7 7.6 7.5 7.4 7.3 7.5 7.7 7.4 7.0 7.1 6.9 6.9
7.7 7.7 7.7 8.0 8.0 7.6 7.5 7.6 7.4 7.2 7.2 7.1 7.4 7.5 7.4 7.2 7.2 6.9 7.1 7.6 7.6 7.7 7.5 7.5 7.4 7.4 7.7 7.5 7.2 7.1 6.9 6.8
7.6 7.5 7.9 7.8 8.0 7.9 7.6 7.5 7.5 7.5 7.7 7.8 7.7 7.7 7.5 7.2 7.2 7.1 7.2 7.6 7.7 7.7 7.6 7.5 7.4 7.4 7.7 7.6 7.4 7.1 7.0 6.9
7.4 7.3 7.5 7.8 7.9 8.0 7.9 7.8 7.7 8.0 8.1 7.9 7.5 7.6 7.5 7.2 7.1 7.3 7.3 7.5 7.7 7.6 7.5 7.4 7.3 7.2 7.4 7.5 7.4 7.1 7.1 7.0
7.5 7.2 7.3 7.6 7.8 8.1 8.1 8.1 8.2 8.2 8.2 8.1 7.9 8.0 7.7 7.6 7.8 7.6 7.5 7.3 7.5 7.6 7.5 7.3 7.1 7.1 7.3 7.4 7.3 7.1 7.0 6.9
7.2 7.2 7.1 7.2 7.6 8.0 8.3 8.4 8.4 8.3 8.2 8.0 8.0 8.0 7.8 7.7 7.8 7.8 7.7 7.3 7.3 7.4 7.5 7.3 7.1 6.9 6.9 7.3 7.1 7.0 6.9 6.9
6.9 7.1 6.9 7.0 7.3 7.7 8.1 8.3 8.6 8.6 8.4 8.1 8.1 7.9 7.9 7.9 7.7 7.7 7.5 7.3 7.2 7.2 7.3 7.2 7.1 6.9 6.8 7.2 7.2 7.1 7.0 6.8
6.5 7.0 6.7 6.9 6.9 7.4 7.8 8.2 8.4 8.6 8.5 8.3 8.2 7.8 7.8 7.7 7.8 7.5 7.5 7.4 7.3 7.1 7.2 7.3 7.1 7.0 6.7 6.9 7.1 7.1 7.0 6.8
6.7 6.8 6.9 6.7 6.9 7.1 7.4 8.0 8.3 8.3 8.5 8.4 8.1 7.9 7.7 7.8 7.7 7.6 7.3 7.2 7.2 7.1 7.1 7.2 7.0 6.9 6.8 6.6 6.8 7.0 7.0 6.8
6.7 6.6 6.9 6.7 6.6 7.0 7.1 7.5 7.9 7.6 8.2 8.4 8.0 8.0 7.7 7.5 7.6 7.5 7.3 7.1 7.1 7.1 7.0 7.1 7.0 6.7 6.5 6.5 6.6 6.6 6.8 6.8
6.7 6.5 6.8 6.7 6.4 6.5 6.8 7.1 7.6 7.5 8.0 8.3 8.0 8.1 8.0 7.6 7.4 7.3 7.3 7.1 7.2 7.2 7.1 7.1 6.8 6.6 6.3 6.2 6.4 6.7 6.8 6.9
6.7 6.8 6.7 6.8 6.6 6.6 6.7 7.2 7.5 7.8 8.0 8.2 8.3 8.0 7.9 7.9 7.7 7.5 7.3 7.3 7.1 7.0 7.1 7.1 6.9 6.6 6.6 6.4 6.2 6.6 6.8 7.0
6.8 6.7 6.7 6.8 6.6 6.7 6.9 7.2 7.1 7.1 7.4 7.7 8.0 7.3 7.5 8.0 8.1 7.8 7.5 7.1 7.2 7.2 7.2 6.9 7.1 6.9 7.0 6.6 6.5 6.7 7.1 6.9
6.8 6.8 6.8 7.0 7.0 6.7 6.8 7.1 7.4 7.3 7.5 7.6 7.6 7.7 7.6 7.9 8.1 7.9 7.8 7.8 7.2 7.1 7.1 7.0 6.8 7.0 6.8 6.7 6.7 6.7 6.8 6.9
6.6 6.8 6.8 6.9 6.7 6.9 6.9 6.9 7.0 6.9 7.0 7.4 7.5 7.5 7.5 7.6 7.9 7.9 7.8 7.8 7.8 7.2 7.2 6.9 7.0 6.8 6.9 6.9 6.9 6.7 6.9 7.0
6.4 6.4 6.7 6.5 6.5 6.6 6.8 6.8 6.9 6.8 6.9 6.9 7.0 7.3 7.6 7.6 7.6 7.7 7.7 7.6 7.7 7.3 7.1 6.9 6.9 7.0 7.0 6.8 6.9 6.9 7.1 7.1
6.4 6.3 6.5 6.7 6.6 6.7 6.6 6.6 6.4 6.5 6.3 6.3 6.6 6.8 7.2 7.3 7.2 7.5 7.5 7.5 7.7 7.4 7.1 6.9 7.0 7.0 7.0 7.0 7.0 7.1 7.0 7.0
7.1 6.8 6.6 6.7 6.9 6.9 6.8 6.8 6.6 6.3 5.8 6.2 5.6 6.6 6.8 6.9 7.1 7.2 7.2 7.0 7.0 7.2 7.3 7.0 6.8 6.7 6.7 6.6 6.8 6.9 6.9 6.9
Wind_Speed
10 16 19 22 19 18 22 21 22 25 26 26 25 24 25 25 24 25 24 24 22 17 15 16 19 20 18 26 27 24 19 15
14 14 16 16 18 19 20 22 22 24 26 27 26 25 24 24 25 24 24 23 22 19 19 16 19 19 20 26 26 23 20 19
15 16 12 16 18 19 19 21 23 24 25 26 27 21 22 22 23 25 25 23 22 21 20 20 17 17 18 26 21 16 17 17
12 15 18 14 15 18 18 18 18 19 20 22 19 21 20 21 20 24 24 23 22 22 20 21 19 15 16 22 15 16 16 15
14 15 15 16 12 13 13 14 15 17 20 21 18 16 15 15 16 18 18 19 16 17 17 16 15 16 16 16 16 14 14 15
15 15 16 16 10 10 10 10 14 11 18 23 18 12 14 14 13 16 15 14 13 13 13 14 14 14 19 17 16 13 15 14
16 16 16 16 15 12 11 12 11 16 18 21 20 11 11 14 13 15 15 15 15 11 12 11 10 11 16 17 16 15 15 15
19 18 17 18 18 18 13 12 13 15 18 20 24 18 12 9 9 10 14 16 13 14 12 8 6 10 10 15 16 16 15 16
22 21 19 19 21 18 14 13 13 13 13 24 25 22 18 14 11 10 12 15 14 12 9 8 5 6 7 14 15 15 16 16
23 20 22 21 18 16 13 14 13 13 14 20 24 24 25 15 11 10 17 17 15 8 7 7 5 5 4 8 10 14 16 16
22 23 23 22 19 15 16 19 14 13 14 15 22 24 27 16 12 12 20 12 10 9 8 9 6 4 6 7 7 7 13 15
23 20 23 23 16 14 12 12 13 13 13 13 23 20 26 16 12 12 18 10 10 9 11 5 6 8 7 6 5 5 10 11
22 22 22 17 14 14 13 13 12 13 14 18 20 20 23 15 11 12 11 13 15 14 8 11 3 5 5 4 4 2 4 7
21 23 23 21 16 15 14 14 15 15 14 17 17 18 20 17 15 14 16 11 13 15 14 7 3 10 8 4 3 1 2 4
21 23 24 23 22 15 12 10 7 10 12 12 14 16 17 18 18 16 16 13 12 14 13 16 11 8 10 6 4 5 4 3
22 24 24 22 22 17 20 16 12 8 11 12 13 19 18 18 18 17 18 13 14 15 11 12 11 13 4 3 2 5 4 2
16 22 22 22 22 20 14 14 13 15 13 16 16 17 18 18 16 17 17 14 15 18 16 16 14 13 13 9 2 1 2 3
9 10 12 11 15 16 18 16 16 12 12 11 11 12 13 18 17 17 17 15 16 16 18 20 17 15 14 13 11 8 4 4
12 14 13 10 7 5 11 13 15 14 8 8 11 10 11 16 19 16 15 18 17 16 16 18 18 17 19 14 12 13 4 8
16 17 14 13 11 10 5 7 8 10 11 10 10 12 12 15 16 17 18 18 17 17 14 15 17 17 21 18 14 13 11 10
Wind_Direction
147 153 162 161 170 164 153 154 151 147 145 144 146 147 148 146 150 151 145 140 141 152 155 147 142 134 120 138 129 122 115 113
151 155 165 168 164 165 157 156 155 153 149 148 147 147 147 149 155 157 148 143 146 155 156 153 149 140 121 130 127 123 117 109
158 160 166 172 173 172 163 163 161 158 154 149 145 151 151 153 161 162 150 149 152 155 159 157 157 143 114 138 127 124 120 119
175 164 164 173 172 173 170 169 171 168 163 157 157 155 160 158 152 150 150 152 155 156 164 164 159 138 114 128 124 130 127 129
179 172 167 165 174 174 174 171 173 174 165 162 157 152 152 150 152 150 153 151 155 156 161 166 164 144 124 124 125 122 130 136
183 178 171 171 168 177 175 177 177 171 174 171 165 164 158 159 165 163 163 162 158 156 160 173 171 158 134 130 128 132 139 137
193 180 175 174 175 176 180 184 179 178 174 175 171 173 169 165 169 166 168 164 168 161 161 171 173 168 134 139 137 139 143 143
186 186 185 175 179 182 181 186 180 177 177 178 175 176 171 168 165 169 176 170 173 169 169 171 174 165 130 145 145 147 150 149
184 186 184 182 183 184 184 184 179 183 178 178 177 177 175 170 171 174 171 164 165 162 158 163 153 172 129 143 144 149 155 156
184 184 183 184 183 183 186 188 183 186 182 179 177 178 176 175 174 173 165 163 169 171 173 174 172 169 129 150 147 154 159 160
183 184 182 184 183 183 184 188 187 184 183 181 181 181 178 178 172 172 165 169 174 172 178 180 178 165 140 146 150 155 161 161
179 182 183 182 178 177 183 185 189 188 184 183 188 185 179 178 174 170 166 170 173 176 176 175 179 169 151 137 143 155 158 166
181 179 184 179 180 180 181 182 182 189 192 185 188 183 178 177 176 166 171 175 179 179 167 170 141 153 112 80 46 81 164 174
178 182 179 185 186 182 186 186 187 189 188 189 187 185 178 178 174 176 179 175 179 178 173 162 148 174 169 119 132 6 286 220
180 180 182 185 187 185 179 175 178 188 193 190 192 189 182 180 178 177 179 181 181 185 184 179 176 190 174 155 140 199 133 202
182 179 181 186 184 183 183 181 182 183 187 187 183 186 184 186 183 180 180 181 180 182 187 187 174 183 175 182 103 141 171 170
197 180 178 184 185 184 183 185 187 183 189 182 182 185 186 187 183 183 184 185 184 183 182 190 187 181 193 180 141 137 122 141
88 104 167 189 190 188 189 182 182 185 180 184 185 186 186 188 182 186 186 187 187 190 188 190 194 195 194 194 196 182 176 153
66 82 71 67 87 170 195 187 187 177 173 184 191 202 196 193 190 182 187 190 189 187 190 195 193 197 195 200 200 207 155 195
63 69 66 59 54 55 67 189 169 165 180 199 203 209 207 200 202 189 189 191 191 190 194 197 198 202 203 201 201 203 199 193